Regional Weather Roundup
Issued by NWS

Home | Current Version | Previous Version | Graphics & Text | Print | Product List | Glossary Off
Versions: 1 2 3 4 5 6 7 8 9 10 11 12 13 14 15 16 17 18 19 20 21 22 23 24 25 26 27 28 29 30 31 32 33 34 35 36 37 38 39 40 41 42 43 44 45 46 47 48 49 50

000
ASUS43 KTOP 050959
RWRKS

WEATHER ROUNDUP FOR KANSAS
NATIONAL WEATHER SERVICE GOODLAND KS
500 AM CDT SUN JUL 05 2015

NOTE:  "FAIR" INDICATES FEW OR NO CLOUDS BELOW 12,000 FEET WITH NO
SIGNIFICANT WEATHER AND/OR OBSTRUCTIONS TO VISIBILITY.

KSZ001>006-013>018-027>032-041>047-051100-
NORTHWEST KANSAS

CITY           SKY/WX    TMP DP  RH WIND       PRES   REMARKS
GOODLAND       CLEAR     69  62  78 S14       29.88S
HAYS           MOCLDY    73  63  68 S12G18    29.89S
HILL CITY      CLOUDY    76  66  71 S7        29.88R
RUSSELL        PTCLDY    73  67  81 S16       29.87F
$$

KSZ061>065-074>080-084>089-051100-
SOUTHWEST KANSAS

CITY           SKY/WX    TMP DP  RH WIND       PRES   REMARKS
DODGE CITY     CLOUDY    72  64  76 W7        29.95R
ELKHART          N/A     71  57  61 S6          N/A
GARDEN CITY    PTCLDY    73  64  73 SE16      29.91F
GREAT BEND     PTCLDY    73  64  73 S14       29.91S
LIBERAL        CLEAR     70  61  73 S9        29.95S
$$

KSZ066>073-081>083-090>101-051100-
SOUTHEAST KANSAS

CITY           SKY/WX    TMP DP  RH WIND       PRES   REMARKS
CHANUTE        CLEAR     70  68  93 SE7       29.97S FOG
COFFEYVILLE    CLEAR     71  69  93 CALM      29.96R
HUTCHINSON     PTCLDY    73  68  84 SE9       29.92F
MEDICINE LODGE   N/A     72  68  87 SE6       29.91F
NEWTON         MOCLDY    72  63  73 S7        29.96S
PARSONS        CLEAR     72  70  93 E3        29.97S
WICHITA INTL   PTCLDY    74  69  85 SE7       29.92F
WICHITA JABRA  MOCLDY    72  68  87 S7        29.93F
WINFIELD       PTCLDY    73  70  90 SE6       29.95S
$$

KSZ007>012-019>026-033>040-048>060-102>105-051100-
NORTHEAST KANSAS

CITY           SKY/WX    TMP DP  RH WIND       PRES   REMARKS
CONCORDIA      PTCLDY    72  65  78 S14       29.91F
EMPORIA        CLEAR     69  66  90 S8        29.95F
LAWRENCE       PTCLDY    66  63  90 E6        29.97S
MANHATTAN      CLEAR     70  67  90 CALM      29.93S
OLATHE IND     PTCLDY    68  65  90 SE7       29.98S
OLATHE EXE     PTCLDY    67  65  93 SE7       29.98R
SALINA         MOCLDY    77  67  71 S13       29.91S
TOPEKA BILLARD PTCLDY    69  65  86 SE6       29.95S
TOPEKA FORBES  PTCLDY    70  65  84 SE8       29.95S
$$



USA.gov is the U.S. government's official web portal to all federal, state and local government web resources and services.